Home > Time Zones > World Clock > Weather > Japan > Naha > Past weeks

Flag for Japan Weather past 2 weeks in Naha, Okinawa, Japan

Now
84 °F

Sprinkles. Passing clouds.


Feels Like: 96 °F
Forecast: 82 / 90 °F
Wind: 9 mph from Southeast

Location: Naha Airport

Current Time: Jul 5, 2015 at 10:57:22 PM

Latest Report: Jul 5, 2015 at 10:30 PM


Visibility: N/A

Pressure: 29.71 "Hg

Humidity: 84%

Dew point: 79 °F

Location of NahaLocation

Historic Weather in Naha — Graph

°F

Naha temperature yesterday

Maximum temperature yesterday: 90 °F (at 11:30 AM)
Minimum temperature yesterday: 84 °F (at 12:00 AM)
Average temperature yesterday: 86 °F

Past Weeks' High & Low Weather Summary

 TemperatureHumidityPressure
High91 °F (Jul 5, 12:00 PM)94% (Jun 22, 3:30 PM)29.89 "Hg (Jun 22, 3:30 PM)
Low81 °F (Jun 20, 10:00 PM)59% (Jul 5, 1:30 PM)29.62 "Hg (Jun 30, 4:00 PM)
Average85 °F81%29.74 "Hg
* Reported Jun 20 10:00 PM — Jul 5 10:00 PM, Naha, Weather by CustomWeather, © 2015

Note: Actual official high and low records may vary slightly from our data, if they occured in-between our weather recording intervals... More about our weather records

Advertising

Naha weather history for previous 24 hours

 ConditionsComfort  
Time TempWeatherWind HumidityBarometerVisibility
10:00 PM
Sun, Jul 5
84 °FScattered showers. Passing clouds.9 mph84%29.71 "HgN/A
9:30 PM84 °FSprinkles. Passing clouds.13 mph84%29.68 "HgN/A
9:00 PM84 °FLots of rain. Passing clouds.13 mph84%29.68 "HgN/A
8:51 PM84 °FLots of rain. Passing clouds.9 mph84%29.68 "Hg2 mi
8:30 PM84 °FScattered showers. Passing clouds.9 mph84%29.68 "HgN/A
8:00 PM84 °FPassing clouds.8 mph84%29.68 "HgN/A
7:30 PM84 °FRain showers. Passing clouds.9 mph79%29.68 "HgN/A
7:00 PM86 °FScattered showers. Partly sunny.13 mph75%29.68 "HgN/A
6:30 PM88 °FBroken clouds.14 mph70%29.65 "HgN/A
6:00 PM88 °FPartly sunny.16 mph70%29.65 "HgN/A
5:30 PM88 °FScattered showers. Partly sunny.15 mph66%29.65 "HgN/A
5:00 PM90 °FScattered showers. Broken clouds.14 mph71%29.65 "HgN/A
4:45 PM90 °FSprinkles. Broken clouds.15 mph67%29.65 "HgN/A
4:30 PM90 °FRain showers. Broken clouds.15 mph67%29.65 "HgN/A
4:00 PM90 °FScattered showers. Broken clouds.15 mph67%29.65 "HgN/A
3:30 PM90 °FScattered showers. Broken clouds.15 mph67%29.68 "HgN/A
3:00 PM90 °FBroken clouds.14 mph67%29.68 "HgN/A
2:30 PM90 °FBroken clouds.14 mph71%29.68 "HgN/A
2:00 PM90 °FBroken clouds.16 mph67%29.68 "HgN/A
1:30 PM91 °FBroken clouds.16 mph59%29.68 "HgN/A
1:00 PM91 °FBroken clouds.16 mph63%29.68 "HgN/A
12:30 PM90 °FBroken clouds.15 mph67%29.68 "HgN/A
12:00 PM91 °FBroken clouds.16 mph63%29.68 "HgN/A
11:30 AM90 °FPartly sunny.15 mph67%29.71 "HgN/A
11:00 AM90 °FPartly sunny.15 mph67%29.71 "HgN/A
10:30 AM90 °FScattered showers. Partly sunny.15 mph71%29.71 "HgN/A
10:00 AM88 °FBroken clouds.16 mph70%29.71 "HgN/A
9:30 AM88 °FBroken clouds.16 mph70%29.71 "HgN/A
9:00 AM88 °FBroken clouds.15 mph70%29.71 "HgN/A
8:30 AM86 °FPartly sunny.15 mph75%29.71 "HgN/A
8:00 AM86 °FPartly sunny.10 mph75%29.71 "HgN/A
7:30 AM84 °FScattered showers. Partly sunny.10 mph74%29.71 "HgN/A
7:00 AM84 °FScattered showers. Partly sunny.10 mph79%29.71 "HgN/A
6:30 AM84 °FPartly sunny.9 mph84%29.71 "HgN/A
6:00 AM84 °FPartly sunny.7 mph84%29.71 "HgN/A
5:30 AM84 °FRain showers. Passing clouds.7 mph79%29.71 "HgN/A
5:00 AM84 °FRain showers. Partly cloudy.7 mph79%29.71 "HgN/A
4:30 AM84 °FSprinkles. Passing clouds.6 mph84%29.71 "HgN/A
4:00 AM84 °FPassing clouds.6 mph79%29.71 "HgN/A
3:30 AM84 °FPassing clouds.8 mph79%29.71 "HgN/A
3:00 AM84 °FPassing clouds.8 mph79%29.68 "HgN/A
2:30 AM84 °FPassing clouds.7 mph79%29.71 "HgN/A
2:00 AM84 °FPassing clouds.7 mph79%29.71 "HgN/A
1:30 AM84 °FPassing clouds.9 mph79%29.71 "HgN/A
1:00 AM84 °FPassing clouds.8 mph79%29.71 "HgN/A
12:30 AM84 °FPassing clouds.7 mph79%29.71 "HgN/A
12:00 AM84 °FPassing clouds.7 mph79%29.71 "HgN/A
11:30 PM
Sat, Jul 4
84 °FPassing clouds.8 mph79%29.74 "HgN/A
11:00 PM84 °FPassing clouds.7 mph79%29.74 "HgN/A
10:30 PM84 °FPassing clouds.7 mph79%29.74 "HgN/A
10:00 PM84 °FPassing clouds.8 mph84%29.74 "HgN/A
Weather by CustomWeather, © 2015

See weather overviewHow to use our weather pages